San Diego, CA

2:23 AM PST on December 09, 2016 (GMT -0800)
Miramar Marine Corps Air Station-Mitscher

Weather History for KNKX - January, 2014

Change the Weather History Date:

Wednesday, January 8, 2014

  Actual Average Record
Temperature  
Mean Temperature 52 °F -  
Max Temperature 66 °F 64 °F 80 °F (2007)
Min Temperature 39 °F 44 °F 33 °F (2000)
Degree Days  
Heating Degree Days 12    
Growing Degree Days 2 (Base 50)    
Moisture  
Dew Point 46 °F    
Average Humidity 78    
Maximum Humidity 97    
Minimum Humidity 45    
Precipitation  
Precipitation 0.00 in - - ()
Sea Level Pressure  
Sea Level Pressure 30.06 in    
Wind  
Wind Speed 3 mph (SSE)    
Max Wind Speed 9 mph    
Max Gust Speed -    
Visibility 8 miles    
Events Fog    
Averages and records for this station are not official NWS values.
T = Trace of Precipitation, MM = Missing Value Source: NWS Daily Summary

Daily Weather History Graph

Daily Weather History Graph

Search for Another Location

Airport or City:

Trip Planner

Search our weather history database for the weather conditions in past years. The results will help you decide how hot, cold, wet, or windy it might be!

Date:

Astronomy

Jan. 08, 2014 Rise Set
Actual Time 6:51 AM PST 4:58 PM PST
Civil Twilight 6:24 AM PST 5:25 PM PST
Nautical Twilight 5:54 AM PST 5:56 PM PST
Astronomical Twilight 5:24 AM PST 6:26 PM PST
Moon 11:44 AM PST (1/8) 12:13 AM PST (1/8)
Length of Visible Light 11h 01m
Length of Day
10h 06m
First Quarter, 57% of the Moon is Illuminated
Jan 8
First Quarter
Jan 15
Full
Jan 23
Last Quarter
Jan 30
New
Feb 6
First Quarter

Hourly Weather History & Observations

Time (PST) Temp. Windchill Dew Point Humidity Pressure Visibility Wind Dir Wind Speed Gust Speed Precip Events Conditions
12:55 AM 52.0 °F - 51.1 °F 97% 30.06 in 0.5 mi ESE 3.5 mph - N/A Fog Fog
1:55 AM 52.0 °F - 51.1 °F 97% 30.07 in 0.5 mi Calm Calm - N/A Fog Fog
2:55 AM 45.0 °F 43.5 °F 43.0 °F 93% 30.06 in 1.0 mi ESE 3.5 mph - N/A   Mostly Cloudy
3:55 AM 48.9 °F - 46.9 °F 93% 30.06 in 0.5 mi Calm Calm - N/A Fog Fog
4:55 AM 46.0 °F 44.8 °F 44.1 °F 93% 30.05 in 0.5 mi East 3.5 mph - N/A Fog Fog
5:55 AM 41.0 °F 35.8 °F 37.9 °F 89% 30.04 in 10.0 mi East 8.1 mph - N/A   Scattered Clouds
6:55 AM 39.0 °F 36.8 °F 35.1 °F 86% 30.06 in 10.0 mi East 3.5 mph - N/A   Scattered Clouds
7:55 AM 46.9 °F - 39.9 °F 77% 30.08 in 10.0 mi Calm Calm - N/A   Scattered Clouds
8:55 AM 53.1 °F - 46.9 °F 80% 30.11 in 7.0 mi Calm Calm - N/A   Scattered Clouds
9:25 AM 55.0 °F - 45.0 °F 69% 30.13 in 9.0 mi South 3.5 mph - N/A   Mostly Cloudy
9:55 AM 57.0 °F - 44.1 °F 62% 30.13 in 9.0 mi SE 6.9 mph - N/A   Mostly Cloudy
10:55 AM 61.0 °F - 48.0 °F 62% 30.11 in 9.0 mi Calm Calm - N/A   Scattered Clouds
11:55 AM 64.0 °F - 44.1 °F 48% 30.07 in 10.0 mi Calm Calm - N/A   Scattered Clouds
12:55 PM 66.9 °F - 45.0 °F 45% 30.03 in 10.0 mi South 8.1 mph - N/A   Scattered Clouds
1:55 PM 64.0 °F - 48.9 °F 58% 30.01 in 10.0 mi Variable 6.9 mph - N/A   Scattered Clouds
2:55 PM 63.0 °F - 48.9 °F 60% 30.02 in 10.0 mi SW 9.2 mph - N/A   Scattered Clouds
3:55 PM 60.1 °F - 48.9 °F 67% 30.04 in 10.0 mi WSW 8.1 mph - N/A   Scattered Clouds
4:55 PM 55.9 °F - 48.0 °F 75% 30.04 in 10.0 mi SW 4.6 mph - N/A   Scattered Clouds
5:55 PM 52.0 °F - 48.0 °F 86% 30.05 in 10.0 mi SSW 4.6 mph - N/A   Partly Cloudy
6:55 PM 48.9 °F - 45.0 °F 86% 30.07 in 10.0 mi SSW 3.5 mph - N/A   Mostly Cloudy
7:55 PM 53.1 °F - 48.0 °F 83% 30.06 in 10.0 mi SE 3.5 mph - N/A   Mostly Cloudy
8:55 PM 51.1 °F - 48.0 °F 89% 30.07 in 10.0 mi SE 3.5 mph - N/A   Mostly Cloudy
9:55 PM 53.1 °F - 48.9 °F 86% 30.04 in 10.0 mi SE 3.5 mph - N/A   Scattered Clouds
10:55 PM 54.0 °F - 48.9 °F 83% 30.02 in 10.0 mi Calm Calm - N/A   Overcast
11:55 PM 55.0 °F - 48.9 °F 80% 30.03 in 9.0 mi SE 4.6 mph - N/A   Overcast